Weather in Bezbozhnik

Russia / Kirov Oblast     59°30′34″N   48°48′21″E
temp.,
°C
wind,
m/s
gust,
m/s
humid.,
%
clouds,
%
prec.,
mm/h
press.,
hPa
HPBL,
m
22 january, fri
fri2200:00−27nw229973 0.0 101419
03:00−28nnw229848 0.0 101624
06:00−29nnw229975 0.0 101738
09:00−28n229880 0.0 101943
12:00−23ne139447 0.0 1021182
15:00−24ene129625 0.0 102220
18:00−25ese239774 0.0 102479
21:00−22se389587 0.0 1025260
23 january, sat
sat2300:00−21se3894100 0.0 1024312
03:00−20se41093100 0.0 1024353
06:00−20se51197100 0.3 1023346
09:00−19se51197100 1.4 1022391
12:00−18se51096100 1.2 1020419
15:00−17se4996100 2.6 1019417
18:00−17se3896100 0.8 1019385
21:00−16se3895100 1.1 1018317
24 january, sun
sun2400:00−16se3795100 0.1 1019273
03:00−16se3796100 0.1 1018248
06:00−15se3795100 0.1 1018236
09:00−14se369598 0.2 1018196
12:00−11se249596 0.2 1018188
15:00−10sse129697 0.3 101883
18:00−11sse229793 0.0 101925
21:00−7sse129795 0.1 101961
25 january, mon
mon2500:00−5se249798 0.2 1020121
03:00−3sse259899 0.5 1020151
06:000s3698100 0.1 1019281
09:00+1sse3699100 0.3 1019196
12:00+1s38100100 0.1 1019250
15:00+1s3899100 0.2 1019264
18:00+1s2799100 0.7 1020208
21:000s4997100 0.8 1020376
26 january, tue
tue2600:00−2s3896100 0.0 1021334
03:00−3s4896100 0.0 1022435
06:00−5s4995100 0.1 1022518
09:00−4s3895100 0.1 1022422
12:00−3s3894100 0.3 1021546
15:00−3s3796100 0.5 1020425
18:00−3s389693 0.3 1021389
21:00−2s499696 0.4 1020381